Location: Grisols
(45.0093°N, 3.1167°E)
Time: 03:03:55
(UTC+00:00)

YAOGAN 6 - Pass Details

Date: 21 October 2019
Orbit: 465 x 506 km, 97.0° (Epoch: 17 November)

Event Time Altitude Azimuth Distance (km) Brightness Sun altitude
Rises 17:25:21 0° 145° (SE) 2,579 6.0 -6.4°
Reaches altitude 10° 17:27:34 10° 135° (SE) 1,695 5.0 -6.8°
Maximum altitude 17:30:50 32° 71° (ENE) 869 3.3 -7.4°
Drops below altitude 10° 17:34:06 10° 7° (N) 1,687 5.2 -7.9°
Sets 17:36:18 0° 358° (N) 2,566 6.2 -8.3°
